Oxford, CT

3:20 AM EDT on April 28, 2017 (GMT -0400)
Waterbury-Oxford

Weather History for KOXC - February, 2012

Change the Weather History Date:

Tuesday, February 7, 2012

  Actual Average Record
Temperature  
Mean Temperature 36 °F -  
Max Temperature 44 °F 34 °F 51 °F (2005)
Min Temperature 28 °F 19 °F 8 °F (2007)
Degree Days  
Heating Degree Days 29    
Moisture  
Dew Point 21 °F    
Average Humidity 55    
Maximum Humidity 65    
Minimum Humidity 42    
Precipitation  
Precipitation 0.00 in - - ()
Sea Level Pressure  
Sea Level Pressure 30.06 in    
Wind  
Wind Speed 5 mph (NNW)    
Max Wind Speed 14 mph    
Max Gust Speed 21 mph    
Visibility 10 miles    
Events      
Averages and records for this station are not official NWS values.
T = Trace of Precipitation, MM = Missing Value Source: NWS Daily Summary

Daily Weather History Graph

Daily Weather History Graph

Search for Another Location

Airport or City:

Trip Planner

Search our weather history database for the weather conditions in past years. The results will help you decide how hot, cold, wet, or windy it might be!

Date:

Astronomy

Feb. 07, 2012 Rise Set
Actual Time 6:58 AM EST 5:15 PM EST
Civil Twilight 6:29 AM EST 5:44 PM EST
Nautical Twilight 5:56 AM EST 6:17 PM EST
Astronomical Twilight 5:24 AM EST 6:49 PM EST
Moon 5:24 PM EST (2/7) 6:25 AM EST (2/7)
Length of Visible Light 11h 15m
Length of Day
10h 17m
Full, 100% of the Moon is Illuminated
Feb 7
Full
Feb 7
Full
Feb 14
Last Quarter
Feb 21
New
Feb 29
First Quarter

Hourly Weather History & Observations

Time (EST) Temp. Windchill Dew Point Humidity Pressure Visibility Wind Dir Wind Speed Gust Speed Precip Events Conditions
12:15 AM 39.2 °F - 21.2 °F 49% 29.95 in 10.0 mi Calm Calm - N/A   Clear
12:35 AM 39.2 °F - 21.2 °F 49% 29.95 in 10.0 mi Calm Calm - N/A   Clear
12:55 AM 39.2 °F 37.0 °F 21.2 °F 49% 29.94 in 10.0 mi West 3.5 mph - N/A   Clear
1:15 AM 39.2 °F 37.0 °F 21.2 °F 49% 29.94 in 10.0 mi West 3.5 mph - N/A   Clear
1:35 AM 37.4 °F 34.9 °F 21.2 °F 52% 29.94 in 10.0 mi WSW 3.5 mph - N/A   Clear
2:15 AM 35.6 °F 32.8 °F 21.2 °F 56% 29.95 in 10.0 mi WSW 3.5 mph - N/A   Clear
2:35 AM 35.6 °F 31.7 °F 21.2 °F 56% 29.95 in 10.0 mi West 4.6 mph - N/A   Clear
2:55 AM 37.4 °F 34.9 °F 21.2 °F 52% 29.94 in 10.0 mi WNW 3.5 mph - N/A   Clear
3:15 AM 35.6 °F - 21.2 °F 56% 29.95 in 10.0 mi Calm Calm - N/A   Clear
3:35 AM 32.0 °F 25.6 °F 19.4 °F 60% 29.95 in 10.0 mi North 6.9 mph - N/A   Clear
4:15 AM 35.6 °F 31.7 °F 21.2 °F 56% 29.95 in 10.0 mi NNW 4.6 mph - N/A   Clear
4:55 AM 35.6 °F 30.7 °F 21.2 °F 56% 29.97 in 10.0 mi NNW 5.8 mph - N/A   Clear
5:15 AM 35.6 °F 31.7 °F 21.2 °F 56% 29.97 in 10.0 mi NW 4.6 mph - N/A   Clear
5:35 AM 33.8 °F 29.6 °F 19.4 °F 56% 29.98 in 10.0 mi NNW 4.6 mph - N/A   Clear
5:45 AM 35.6 °F 30.7 °F 21.2 °F 56% 29.98 in 10.0 mi NNW 5.8 mph - N/A   Clear
5:55 AM 35.6 °F 31.7 °F 21.2 °F 56% 29.98 in 10.0 mi NW 4.6 mph - N/A   Clear
6:45 AM 33.8 °F 30.8 °F 21.2 °F 60% 29.99 in 10.0 mi NW 3.5 mph - N/A   Clear
7:45 AM 33.8 °F - 21.2 °F 60% 30.01 in 10.0 mi Calm Calm - N/A   Clear
8:45 AM 37.4 °F - 24.8 °F 60% 30.03 in 10.0 mi Calm Calm - N/A   Clear
9:45 AM 39.2 °F 31.6 °F 24.8 °F 56% 30.05 in 10.0 mi North 12.7 mph 19.6 mph N/A   Scattered Clouds
10:45 AM 41.0 °F 35.2 °F 24.8 °F 53% 30.07 in 10.0 mi North 9.2 mph - N/A   Overcast
11:45 AM 42.8 °F 35.8 °F 24.8 °F 49% 30.07 in 10.0 mi North 13.8 mph 20.7 mph N/A   Mostly Cloudy
12:45 PM 42.8 °F 35.8 °F 23.0 °F 46% 30.07 in 10.0 mi NNW 13.8 mph 20.7 mph N/A   Mostly Cloudy
1:55 PM 42.8 °F 35.8 °F 24.8 °F 49% 30.06 in 10.0 mi NNW 13.8 mph 20.7 mph N/A   Mostly Cloudy
2:45 PM 44.6 °F 38.8 °F 24.8 °F 46% 30.06 in 10.0 mi NNW 11.5 mph 20.7 mph N/A   Mostly Cloudy
3:45 PM 42.8 °F 39.3 °F 23.0 °F 46% 30.08 in 10.0 mi NNW 5.8 mph 17.3 mph N/A   Mostly Cloudy
4:55 PM 42.8 °F 37.5 °F 21.2 °F 42% 30.10 in 10.0 mi North 9.2 mph - N/A   Mostly Cloudy
5:45 PM 39.2 °F 32.0 °F 23.0 °F 52% 30.13 in 10.0 mi North 11.5 mph - N/A   Scattered Clouds
6:45 PM 35.6 °F 28.6 °F 24.8 °F 65% 30.16 in 10.0 mi North 9.2 mph - N/A   Clear
7:45 PM 35.6 °F 29.2 °F 21.2 °F 56% 30.18 in 10.0 mi North 8.1 mph - N/A   Clear
9:15 PM 30.2 °F 20.8 °F 19.4 °F 64% 30.21 in 10.0 mi North 11.5 mph - N/A   Clear
9:35 PM 30.2 °F 21.9 °F 19.4 °F 64% 30.21 in 10.0 mi North 9.2 mph - N/A   Clear
10:15 PM 30.2 °F 21.3 °F 19.4 °F 64% 30.22 in 10.0 mi North 10.4 mph - N/A   Clear
10:35 PM 28.4 °F 19.1 °F 17.6 °F 64% 30.22 in 10.0 mi North 10.4 mph - N/A   Clear
10:55 PM 30.2 °F 21.9 °F 17.6 °F 60% 30.23 in 10.0 mi North 9.2 mph - N/A   Clear
11:15 PM 30.2 °F 22.6 °F 17.6 °F 60% 30.24 in 10.0 mi North 8.1 mph - N/A   Clear
11:35 PM 30.2 °F 21.3 °F 17.6 °F 60% 30.23 in 10.0 mi North 10.4 mph - N/A   Clear
11:55 PM 30.2 °F 20.8 °F 17.6 °F 60% 30.23 in 10.0 mi NNW 11.5 mph 18.4 mph N/A   Clear